Flag for Canada Weather past 2 weeks in Guelph, Ontario, Canada

Now
79 °F

Partly sunny.


Feels Like: 80 °F
Forecast: 60 / 77 °F
Wind: 8 mph from Southwest

Location: Waterloo Well

Current Time: Aug 30, 2015 at 4:23:39 PM

Latest Report: Aug 30, 2015 at 4:00 PM


Visibility: 9 mi

Pressure: 30.03 "Hg

Humidity: 58%

Dew point: 63 °F

Location of GuelphLocation

Historic Weather in Guelph — Graph

°F

Guelph temperature yesterday

Maximum temperature yesterday: 75 °F (at 3:00 PM)
Minimum temperature yesterday: 52 °F (at 5:04 AM)
Average temperature yesterday: 63 °F

Past Weeks' High & Low Weather Summary

 TemperatureHumidityPressure
High86 °F (Aug 16, 4:00 PM)100% (Aug 16, 2:58 AM)30.24 "Hg (Aug 16, 2:58 AM)
Low45 °F (Aug 28, 3:00 AM)43% (Aug 24, 5:00 PM)29.69 "Hg (Aug 20, 6:00 AM)
Average65 °F81%30.02 "Hg
* Reported Aug 15 3:00 PM — Aug 30 3:00 PM, Guelph, Weather by CustomWeather, © 2015

Note: Actual official high and low records may vary slightly from our data, if they occured in-between our weather recording intervals... More about our weather records

Advertising

Guelph weather history for previous 24 hours

 ConditionsComfort  
Time TempWeatherWind HumidityBarometerVisibility
3:00 PM
Sun, Aug 30
79 °FBroken clouds.10 mph58%30.05 "Hg9 mi
2:00 PM77 °FBroken clouds.7 mph61%30.06 "Hg9 mi
1:00 PM77 °FOvercast.8 mph61%30.08 "Hg9 mi
12:00 PM73 °FOvercast.5 mph65%30.10 "Hg9 mi
11:00 AM72 °FCloudy.3 mph73%30.11 "Hg9 mi
10:00 AM70 °FPassing clouds.3 mph78%30.10 "Hg9 mi
9:02 AM66 °FFog.No wind88%30.10 "Hg6 mi
8:00 AM63 °FFog.No wind100%30.10 "Hg2 mi
7:00 AM63 °FFog.No wind100%30.09 "Hg2 mi
6:00 AM63 °FFog.3 mph94%30.07 "Hg2 mi
5:00 AM63 °FFog.No wind94%30.06 "Hg1 mi
4:01 AM63 °FFog.No wind100%30.07 "Hg2 mi
3:00 AM64 °FLight rain. Fog.2 mph94%30.07 "Hg6 mi
2:57 AM64 °FLight rain. Fog.2 mph94%30.08 "Hg6 mi
2:00 AM64 °FLight rain. Fog.2 mph94%30.09 "Hg5 mi
1:59 AM64 °FLight rain. Fog.2 mph94%30.09 "Hg5 mi
1:00 AM64 °FFog.2 mph94%30.09 "Hg5 mi
12:00 AM63 °FFog.2 mph100%30.09 "Hg3 mi
11:55 PM
Sat, Aug 29
63 °FFog.No wind100%30.09 "Hg3 mi
11:00 PM63 °FFog.No wind100%30.09 "Hg4 mi
10:00 PM64 °FMostly cloudy.No wind94%30.10 "Hg9 mi
9:00 PM66 °FMostly cloudy.6 mph88%30.09 "Hg8 mi
8:55 PM64 °FFog.5 mph94%30.10 "Hg6 mi
8:00 PM66 °FFog.2 mph94%30.09 "Hg4 mi
7:00 PM66 °FMostly cloudy.2 mph94%30.09 "Hg7 mi
6:59 PM66 °FMostly cloudy.2 mph94%30.09 "Hg7 mi
6:00 PM70 °FLight rain. Overcast.5 mph83%30.10 "Hg9 mi
5:59 PM70 °FLight rain. Overcast.6 mph83%30.11 "Hg9 mi
5:00 PM72 °FMore clouds than sun.3 mph73%30.10 "Hg9 mi
4:00 PM73 °FMostly cloudy.2 mph61%30.10 "Hg9 mi
Weather by CustomWeather, © 2015

See weather overviewHow to use our weather pages